Weather History for Lancaster, OH

Change the Weather History Date:

Monday, January 16, 2012

  Actual Average Record
Temperature  
Mean Temperature 34 °F -  
Max Temperature 46 °F 33 °F 61 °F (1953)
Min Temperature 21 °F 13 °F -17 °F (2009)
Degree Days  
Heating Degree Days 32    
Moisture  
Dew Point 28 °F    
Average Humidity 72    
Maximum Humidity 87    
Minimum Humidity 55    
Precipitation  
Precipitation 0.08 in - - ()
Sea Level Pressure  
Sea Level Pressure 30.12 in    
Wind  
Wind Speed 8 mph (South)    
Max Wind Speed 13 mph    
Max Gust Speed -    
Visibility 9 miles    
Events Rain    
Averages and records for this station are not official NWS values.
T = Trace of Precipitation, MM = Missing Value Source: NWS Daily Summary

Daily Weather History Graph

Daily Weather History Graph

Search for Another Location

Airport:

Trip Planner

Search our weather history database for the weather conditions in past years. The results will help you decide how hot, cold, wet, or windy it might be!

Date:

Astronomy

Jan. 16, 2012 Rise Set
Actual Time 7:49 AM EST 5:31 PM EST
Civil Twilight 7:20 AM EST 6:00 PM EST
Nautical Twilight 6:46 AM EST 6:33 PM EST
Astronomical Twilight 6:14 AM EST 7:06 PM EST
Moon 12:57 AM EST (1/16) 11:44 AM EST (1/16)
Length of Visible Light 10h 40m
Length of Day
9h 41m
Waning Gibbous, 46% of the Moon is Illuminated
Jan 16
Waning Gibbous
Jan 23
New
Jan 30
First Quarter
Feb 7
Full
Feb 14
Last Quarter

Hourly Weather History & Observations

Time (EST) Temp. Windchill Dew Point Humidity Pressure Visibility Wind Dir Wind Speed Gust Speed Precip Events Conditions
12:53 AM 21.0 °F 13.4 °F 15.1 °F 78% 30.37 in 10.0 mi SE 5.8 mph - N/A   Clear
1:53 AM 21.9 °F 11.0 °F 15.1 °F 75% 30.34 in 10.0 mi SE 10.4 mph - N/A   Clear
2:53 AM 21.9 °F 12.5 °F 16.0 °F 78% 30.32 in 10.0 mi SE 8.1 mph - N/A   Clear
3:53 AM 21.9 °F 11.7 °F 16.0 °F 78% 30.29 in 10.0 mi SE 9.2 mph - N/A   Clear
4:53 AM 21.9 °F 12.5 °F 16.0 °F 78% 30.28 in 10.0 mi SE 8.1 mph - N/A   Clear
5:53 AM 24.1 °F 14.4 °F 17.1 °F 75% 30.26 in 10.0 mi SSE 9.2 mph - N/A   Clear
6:53 AM 26.1 °F 18.4 °F 18.0 °F 71% 30.25 in 10.0 mi SSE 6.9 mph - N/A   Clear
7:53 AM 30.0 °F 21.7 °F 19.0 °F 64% 30.22 in 10.0 mi SSE 9.2 mph - N/A   Clear
8:53 AM 33.1 °F 25.5 °F 21.0 °F 61% 30.21 in 10.0 mi SSE 9.2 mph - N/A   Clear
9:53 AM 37.9 °F 30.5 °F 23.0 °F 55% 30.18 in 10.0 mi SSW 11.5 mph - N/A   Overcast
10:53 AM 39.0 °F 31.4 °F 24.1 °F 55% 30.17 in 10.0 mi South 12.7 mph - N/A   Overcast
11:53 AM 39.9 °F 32.9 °F 26.1 °F 58% 30.13 in 10.0 mi South 11.5 mph - N/A   Overcast
12:03 PM 41.0 °F 33.9 °F 26.6 °F 57% 30.09 in 10.0 mi South 12.7 mph - N/A   Overcast
12:53 PM 41.0 °F 34.7 °F 27.0 °F 57% 30.10 in 9.0 mi SSW 10.4 mph - N/A   Overcast
1:35 PM 37.4 °F 31.4 °F 32.0 °F 81% 30.06 in 2.5 mi South 8.1 mph - 0.03 in Rain Light Rain
1:42 PM 37.4 °F 32.1 °F 33.8 °F 87% 30.06 in 4.0 mi South 6.9 mph - 0.04 in Rain Light Rain
1:53 PM 37.9 °F 32.7 °F 33.1 °F 83% 30.08 in 4.0 mi South 6.9 mph - 0.05 in Rain Light Rain
2:53 PM 41.0 °F 35.2 °F 34.0 °F 76% 30.05 in 10.0 mi SSW 9.2 mph - 0.00 in   Overcast
3:53 PM 43.0 °F 38.8 °F 37.0 °F 80% 30.05 in 9.0 mi SSW 6.9 mph - 0.01 in Rain Light Rain
4:11 PM 42.8 °F 38.6 °F 37.4 °F 81% 30.02 in 10.0 mi SSW 6.9 mph - 0.00 in   Overcast
4:53 PM 43.0 °F 39.5 °F 36.0 °F 76% 30.04 in 10.0 mi South 5.8 mph - 0.00 in   Overcast
5:53 PM 43.0 °F 38.2 °F 35.1 °F 74% 30.03 in 10.0 mi South 8.1 mph - N/A   Overcast
6:53 PM 44.1 °F 39.5 °F 35.1 °F 71% 30.02 in 10.0 mi South 8.1 mph - 0.01 in   Overcast
7:53 PM 46.0 °F 42.5 °F 35.1 °F 66% 30.00 in 10.0 mi South 6.9 mph - N/A   Overcast
8:53 PM 46.9 °F - 36.0 °F 66% 29.99 in 10.0 mi SSW 10.4 mph - N/A   Overcast
9:26 PM 46.4 °F 41.9 °F 35.6 °F 66% 29.96 in 10.0 mi South 9.2 mph - N/A   Overcast
9:53 PM 46.0 °F 42.5 °F 37.0 °F 71% 29.98 in 10.0 mi South 6.9 mph - 0.00 in Rain Light Rain
11:53 PM 46.0 °F 41.4 °F 42.1 °F 86% 29.95 in 9.0 mi South 9.2 mph - 0.01 in   Overcast